Dewpoint
-8 -7 -10 -10 -9 -9 -8 -6 -5 -6 -5 -4 -3 -3 -2 -3 -7 -8 -6 -6 -4 -2 -0 1 2 3 3 3 4 6 6 7 8 8 7 5 3 5 6 10 10 11 10 9
-7 -8 -11 -9 -8 -8 -7 -5 -5 -6 -5 -4 -2 -2 -2 -4 -6 -8 -9 -8 -8 -4 2 2 3 3 3 3 3 4 6 7 7 7 7 7 7 8 9 9 10 10 10 10
-6 -10 -10 -9 -11 -9 -8 -5 -6 -5 -5 -3 -2 -1 -0 -3 -7 -9 -10 -8 -10 -10 -1 1 1 2 3 3 3 3 4 6 7 8 8 8 8 9 8 8 9 9 10 9
-8 -10 -10 -11 -11 -9 -7 -7 -6 -4 -3 -2 -3 -1 -2 -2 -4 -8 -10 -11 -10 -12 -10 -3 -1 0 2 3 3 3 2 4 7 7 7 8 7 7 6 6 7 8 8 8
-10 -9 -10 -11 -12 -9 -8 -6 -4 -4 -3 -2 -2 -0 -2 -2 -2 -5 -10 -11 -12 -13 -13 -9 -6 -4 -3 2 3 3 4 3 4 6 6 6 6 6 6 6 6 6 6 7
-9 -8 -9 -12 -11 -10 -7 -5 -3 -1 -1 1 -2 -0 -1 -2 -3 -6 -10 -11 -12 -13 -14 -14 -13 -11 -7 -8 -1 2 3 4 4 3 4 5 5 5 5 6 5 5 5 5
-7 -8 -9 -10 -9 -9 -5 -3 0 -0 3 0 -2 -1 -1 -3 -5 -7 -9 -11 -12 -13 -14 -15 -15 -15 -12 -11 -13 -11 -2 2 3 3 3 3 4 4 4 4 4 4 4 4
-5 -1 -9 -11 -10 -9 -5 -5 -1 -1 -2 -2 -4 -1 -2 -3 -7 -9 -10 -11 -12 -13 -14 -14 -15 -15 -16 -16 -16 -15 -13 -16 -7 -3 -8 -3 2 2 3 4 4 4 4 4
-7 -6 -10 -10 -11 -9 -8 -5 -7 -5 -4 -1 -2 -5 -3 -6 -7 -9 -10 -11 -12 -12 -13 -14 -15 -15 -15 -16 -16 -16 -17 -16 -17 -17 -11 -15 -15 -14 -16 -15 -13 -5 -2 0
-9 -7 -9 -9 -10 -9 -7 -8 -4 -2 1 2 -1 -4 -1 -2 -4 -7 -9 -10 -11 -12 -13 -13 -14 -15 -15 -16 -16 -17 -17 -18 -18 -19 -18 -19 -19 -20 -20 -20 -20 -19 -19 -18
-9 -8 -7 -10 -8 -7 -7 -4 -6 -5 -3 -0 0 -1 -4 -1 -2 -5 -8 -10 -11 -11 -12 -13 -14 -14 -15 -16 -16 -17 -17 -18 -18 -19 -20 -20 -20 -21 -21 -22 -23 -23 -24 -24
-10 -8 -5 -7 -10 -10 -11 -9 -7 -1 1 -4 -4 -0 -3 -2 -3 -4 -7 -9 -11 -11 -11 -12 -13 -14 -15 -15 -16 -17 -17 -18 -19 -20 -20 -21 -21 -21 -22 -22 -22 -23 -24 -24
-9 -6 -1 1 -4 -8 -9 -10 -8 -5 -3 -1 1 -0 -3 -4 -5 -5 -7 -8 -10 -11 -11 -12 -13 -14 -14 -15 -15 -16 -17 -18 -19 -20 -20 -21 -20 -20 -20 -21 -21 -22 -22 -23
-8 -7 -2 3 2 -6 -5 -5 -6 -6 -1 -3 -2 -3 -4 -4 -4 -6 -7 -8 -10 -10 -11 -11 -12 -13 -14 -14 -15 -16 -18 -19 -19 -20 -19 -19 -19 -20 -21 -22 -22 -22 -22 -22
-7 -5 -5 -6 -7 -7 -6 -6 -6 -5 -5 -4 -4 -4 -6 -7 -6 -5 -6 -9 -10 -11 -11 -11 -12 -13 -14 -14 -15 -16 -17 -18 -17 -18 -18 -19 -19 -20 -21 -21 -21 -21 -22 -22
-6 -2 -5 -2 -3 -4 -3 -3 -4 -4 -5 -5 -6 -5 -7 -6 -5 -5 -6 -8 -10 -11 -11 -11 -6 -9 -13 -14 -15 -16 -16 -16 -17 -18 -19 -20 -21 -20 -20 -20 -20 -21 -21 -22
-4 -3 -2 2 -2 -1 0 -2 -2 -3 -3 -3 -1 -3 -6 -5 -6 -6 -8 -9 -10 -11 -11 -5 -9 -13 -13 -14 -15 -15 -16 -16 -17 -18 -19 -19 -19 -19 -19 -20 -21 -22 -22 -23
-1 -4 -3 0 -1 2 -2 -4 -4 -3 -3 -3 -3 -5 -7 -7 -8 -9 -9 -9 -10 -11 -10 -11 -12 -12 -13 -14 -15 -15 -16 -17 -17 -18 -18 -19 -19 -19 -19 -20 -21 -22 -22 -23
-3 -2 2 3 1 -0 -2 -3 -2 -2 -2 -4 -3 -6 -8 -9 -10 -10 -10 -10 -10 -11 -11 -11 -12 -13 -14 -15 -15 -15 -16 -17 -17 -18 -18 -19 -19 -19 -20 -21 -21 -22 -22 -23
-4 -3 2 1 3 4 -1 -4 -6 -5 0 -6 -6 -7 -9 -10 -6 -8 -11 -11 -11 -11 -11 -12 -12 -14 -14 -14 -15 -15 -16 -17 -17 -18 -19 -19 -19 -20 -20 -21 -21 -22 -22 -22
-1 -1 1 1 3 1 -3 -6 -6 3 2 -7 -7 -8 -9 -9 -9 -10 -11 -11 -11 -11 -12 -13 -13 -10 -11 -14 -15 -16 -16 -17 -18 -18 -19 -19 -20 -20 -20 -21 -21 -21 -21 -21
0 2 1 0 2 1 -6 -5 1 -2 -6 -4 -6 -8 -9 -9 -10 -11 -11 -11 -12 -12 -10 -8 -8 -10 -13 -15 -15 -16 -17 -17 -18 -18 -19 -20 -20 -20 -20 -20 -20 -20 -20 -20
2 2 4 0 -1 -4 -6 -3 -3 -4 -5 -4 -4 -6 -9 -10 -10 -11 -11 -11 -9 -8 -9 -9 -10 -14 -15 -15 -16 -17 -17 -18 -19 -19 -20 -20 -20 -20 -19 -19 -19 -19 -19 -19
-2 -2 0 1 0 -1 -2 -4 -5 -4 -3 -4 -5 -6 -7 -7 -8 -9 -9 -9 -9 -10 -10 -11 -14 -15 -15 -16 -17 -18 -18 -19 -19 -20 -20 -20 -19 -19 -19 -19 -18 -18 -18 -18
2 -2 -1 0 -0 -1 -3 -5 -4 -4 -5 -6 -7 -7 -8 -8 -9 -9 -9 -10 -10 -11 -13 -14 -15 -16 -17 -17 -18 -19 -19 -19 -19 -19 -19 -19 -19 -19 -19 -18 -17 -17 -17 -16
0 1 2 2 -4 -3 -5 -5 -6 -6 -7 -8 -7 -8 -9 -9 -9 -10 -10 -11 -12 -14 -14 -16 -17 -17 -18 -19 -19 -19 -19 -18 -19 -19 -19 -19 -19 -18 -18 -17 -17 -18 -17 -16
Wind_Speed
6 6 2 2 2 3 1 2 4 4 1 2 4 4 6 4 5 9 12 16 17 20 24 25 29 29 31 21 15 11 6 6 8 8 13 19 21 19 18 18 25 34 33 31
5 2 1 1 2 2 3 2 4 4 2 3 2 8 5 5 3 4 8 13 17 19 21 24 29 30 32 32 27 9 4 6 8 11 9 12 10 13 13 20 26 29 39 35
4 2 0 0 2 5 3 3 3 4 2 1 2 5 3 3 5 3 6 7 12 17 18 21 24 28 31 31 30 28 7 3 8 8 5 10 8 9 9 11 17 11 30 25
0 2 1 1 2 3 4 2 3 5 3 3 2 4 3 4 4 1 3 7 10 13 15 15 19 24 29 32 29 29 25 19 12 16 15 17 17 19 24 25 22 20 22 18
2 3 3 2 1 4 6 2 3 2 2 2 1 1 2 4 7 7 3 3 6 9 13 16 19 21 24 24 29 28 28 31 31 26 28 30 28 25 23 21 20 20 20 20
1 3 2 2 2 2 4 2 3 3 1 1 3 3 4 5 5 4 5 4 4 6 10 13 16 18 22 23 22 23 29 32 24 23 28 24 19 17 14 13 9 10 12 15
6 2 3 2 3 1 7 5 3 4 3 4 3 2 7 4 3 5 11 8 5 5 8 11 14 17 18 22 24 26 21 25 29 27 21 22 22 19 20 18 15 9 4 4
5 6 3 4 2 2 3 2 2 4 3 5 1 5 4 2 6 9 12 9 6 4 7 9 11 14 16 18 20 21 22 25 21 18 21 22 17 21 18 13 9 8 8 4
5 5 3 2 2 2 2 2 1 2 1 1 3 6 1 2 2 6 11 10 7 4 5 6 8 10 12 13 15 17 18 19 20 21 19 21 19 20 19 18 13 14 9 6
0 5 1 3 0 2 1 2 2 2 5 5 5 5 5 5 9 9 11 14 11 7 5 4 6 7 9 10 12 13 15 17 18 18 19 19 18 18 15 13 12 12 11 10
2 3 5 2 2 3 1 1 1 1 2 2 4 6 4 4 5 13 18 20 16 12 7 4 4 5 6 7 8 10 11 13 15 16 17 17 16 16 15 16 16 14 13 12
1 3 4 8 1 1 2 3 4 3 4 3 2 8 0 2 7 12 17 22 20 16 11 7 4 4 4 4 5 7 9 10 12 13 13 14 14 15 15 15 14 13 14 14
3 1 4 7 1 1 3 4 3 2 1 7 4 7 2 2 1 8 19 26 26 21 18 12 8 4 2 2 4 7 9 11 11 12 13 14 14 15 15 15 16 17 17 18
5 2 6 7 5 2 10 7 5 6 4 6 18 22 18 10 7 13 20 27 28 25 21 15 11 7 4 0 3 6 8 10 12 14 15 15 16 16 17 17 16 16 17 17
4 5 6 11 10 10 20 18 12 14 19 9 25 12 21 12 8 18 24 26 27 25 21 17 12 8 5 2 3 5 7 9 10 11 12 12 12 13 13 13 14 15 14 14
2 3 4 8 11 8 11 14 14 17 18 16 21 25 14 13 9 8 20 27 29 27 22 19 14 10 7 4 4 6 9 11 13 14 16 17 18 20 20 20 20 19 19 19
4 2 2 5 0 6 9 10 6 3 5 5 7 8 0 3 5 5 13 21 26 28 24 17 15 11 8 6 6 7 8 10 12 14 15 16 17 18 19 20 22 23 24 24
2 2 2 5 5 2 4 1 3 7 7 10 11 5 3 5 6 4 8 16 20 22 20 16 12 9 7 5 6 8 10 12 13 14 16 17 18 19 20 21 21 22 22 23
7 4 3 3 3 8 6 3 4 4 6 4 11 4 3 3 2 5 7 11 16 19 15 12 9 6 4 5 7 9 10 12 14 16 18 18 19 19 19 20 20 21 23 24
3 1 3 1 4 6 5 2 3 3 5 4 3 4 7 9 2 1 11 14 16 14 11 9 5 3 5 7 9 11 13 13 15 17 19 20 20 21 21 22 23 24 25 25
3 2 9 7 5 8 5 7 6 3 6 4 3 6 10 5 3 4 13 15 12 10 7 5 3 5 7 10 11 13 14 15 17 20 21 21 21 22 23 24 24 25 26 26
7 6 5 2 4 10 14 8 7 4 2 5 7 6 12 9 7 14 14 13 11 9 8 6 5 6 9 11 13 14 15 17 19 22 23 23 23 24 25 26 27 27 27 28
3 8 4 10 8 1 24 10 14 11 8 9 9 8 12 13 13 14 14 12 8 5 3 4 6 9 10 12 15 17 18 20 22 23 24 25 25 25 26 26 27 27 26 26
4 13 4 2 9 20 21 25 19 15 14 9 8 9 13 15 14 12 10 7 4 2 3 6 9 11 12 14 16 18 19 21 24 26 26 26 27 27 26 25 24 25 24 25
4 8 5 11 21 17 15 14 16 14 8 5 6 7 9 11 11 9 6 4 2 3 6 9 12 15 16 17 19 19 21 23 25 26 26 26 27 27 26 24 24 24 24 23
10 9 6 10 3 3 5 6 4 4 6 7 8 10 9 7 7 5 3 0 3 7 10 12 14 16 18 20 21 21 22 24 26 27 27 26 26 25 25 25 26 21 22 21
Wind_Direction
19 66 22 302 181 156 215 230 252 262 247 255 232 237 188 147 49 24 10 7 7 15 22 27 31 30 29 12 343 333 293 238 204 215 242 236 236 252 256 253 242 231 231 215
26 78 257 184 149 174 212 258 269 274 202 230 220 258 171 157 122 59 20 12 7 14 25 24 30 32 31 26 24 341 354 237 217 223 240 239 241 245 240 255 239 240 236 216
131 198 234 296 340 4 303 216 268 258 297 200 315 274 170 180 149 104 48 28 23 23 30 25 30 37 36 33 36 26 357 89 150 171 190 207 216 225 237 227 221 224 228 211
33 315 15 324 259 129 298 216 266 280 333 269 49 298 236 187 198 209 35 29 25 27 35 33 32 35 41 40 41 42 49 71 136 162 145 146 135 123 105 99 114 139 168 172
307 357 345 305 265 167 238 295 253 249 222 5 315 204 239 154 224 208 173 76 42 35 38 40 39 37 42 43 42 43 42 62 61 116 113 114 111 112 105 97 95 90 98 112
275 291 237 275 334 191 300 304 50 54 84 331 242 165 248 194 209 157 177 156 90 61 54 52 51 47 47 44 54 45 53 56 74 60 66 89 103 98 96 85 82 72 65 66
337 313 305 339 345 17 27 27 346 359 2 244 200 194 263 183 180 162 171 167 122 79 62 52 55 51 45 44 45 55 50 51 51 53 52 45 61 70 72 68 65 50 17 316
21 335 358 350 58 301 7 70 108 308 302 295 355 244 278 57 126 145 158 162 143 110 80 63 54 59 54 48 49 51 54 59 64 66 57 62 48 55 59 60 63 68 65 72
7 285 317 12 1 83 10 22 201 268 259 356 260 291 169 98 161 176 173 179 176 158 120 94 76 62 62 58 54 53 53 56 55 55 54 52 52 47 49 50 42 51 46 29
232 300 271 290 46 50 123 164 346 26 324 302 291 284 260 238 223 206 206 200 195 191 170 127 99 82 65 61 56 48 48 46 44 43 40 37 34 35 36 32 29 30 25 16
126 133 287 334 196 181 33 318 72 148 168 263 309 266 213 216 202 206 203 207 196 196 197 178 134 103 84 63 54 52 45 40 39 37 34 29 30 29 22 17 18 15 9 3
10 163 280 243 237 347 201 226 170 140 265 237 181 268 194 258 268 228 192 200 198 196 193 196 189 144 120 91 63 48 41 34 31 33 28 25 22 16 10 9 7 1 356 353
167 273 318 327 37 63 227 214 196 100 81 212 218 262 185 225 190 198 195 197 195 192 188 191 193 204 185 84 56 41 32 27 24 17 12 11 7 4 3 359 355 352 351 351
184 188 198 241 256 281 269 238 212 197 232 250 241 271 264 261 228 207 207 208 202 194 188 186 186 200 207 168 25 20 15 13 10 8 5 1 358 357 354 352 351 349 345 342
184 232 209 259 261 261 269 271 249 228 246 239 269 259 274 284 258 245 231 206 200 195 188 184 185 195 214 265 326 349 351 351 349 344 343 345 345 344 342 340 340 341 339 336
194 262 212 269 253 261 268 264 250 242 250 249 260 270 289 280 295 235 214 202 197 198 192 179 191 206 214 235 289 321 328 334 339 342 345 347 347 346 345 343 341 339 337 338
206 232 315 263 68 295 284 258 208 201 203 185 207 238 247 294 319 285 220 210 200 200 190 198 188 196 216 247 276 300 318 328 334 336 335 332 330 331 332 334 334 335 334 332
209 185 224 285 340 287 279 176 229 218 255 219 267 254 220 277 285 266 223 219 208 195 189 186 190 202 223 263 300 316 323 326 327 323 321 322 324 325 325 324 323 322 321 321
215 163 260 264 247 287 264 166 148 174 277 245 239 209 204 191 250 259 207 207 196 186 186 189 195 209 245 287 306 315 316 320 318 315 315 317 316 316 316 316 315 316 316 316
93 137 186 169 251 270 250 148 155 127 282 7 286 228 186 165 237 201 176 176 173 176 180 185 195 235 287 302 307 311 312 311 307 307 310 316 317 317 316 316 316 317 314 313
123 187 220 224 251 275 249 155 142 109 302 343 290 261 206 192 249 163 165 158 166 168 172 180 218 273 294 299 303 306 307 308 309 310 313 316 316 314 314 313 313 312 311 310
187 183 209 197 222 271 160 126 191 205 197 246 260 247 224 208 158 157 163 160 164 175 198 239 278 300 297 299 303 305 308 308 309 309 312 313 315 315 313 312 311 310 310 309
238 196 203 197 222 267 195 230 220 245 227 242 239 230 211 176 163 165 167 175 190 208 250 307 305 294 298 304 306 308 311 310 308 309 311 312 311 311 310 309 309 309 309 308
257 220 227 23 252 253 252 245 251 257 259 257 237 205 193 178 178 180 182 184 190 235 287 290 289 294 303 308 308 309 312 310 308 309 310 311 310 310 311 309 308 307 309 309
215 156 210 251 277 276 270 262 265 262 256 206 177 177 173 176 166 173 170 184 222 289 287 291 299 305 313 312 311 314 313 308 307 308 309 310 309 309 310 310 311 312 312 310
219 241 231 268 24 314 344 331 273 214 166 160 162 143 139 145 145 155 160 269 312 296 300 305 307 311 312 310 311 316 310 309 310 310 311 311 311 313 314 314 312 309 311 306
Height
1543 1549 1553 1552 1552 1552 1554 1556 1556 1550 1546 1546 1546 1546 1547 1549 1548 1549 1549 1546 1542 1538 1533 1527 1521 1515 1508 1503 1497 1492 1489 1488 1488 1491 1494 1495 1496 1499 1499 1501 1504 1507 1508 1513
1549 1552 1549 1549 1550 1551 1552 1553 1552 1547 1546 1547 1545 1542 1545 1546 1547 1547 1547 1545 1542 1538 1533 1529 1523 1516 1509 1504 1497 1492 1489 1488 1489 1490 1492 1493 1494 1496 1497 1497 1498 1501 1503 1505
1551 1549 1547 1548 1549 1550 1551 1551 1549 1549 1545 1547 1547 1540 1545 1547 1546 1546 1545 1544 1542 1539 1534 1531 1526 1520 1513 1506 1499 1494 1489 1487 1485 1487 1489 1490 1491 1494 1496 1496 1495 1497 1494 1493
1550 1549 1548 1548 1548 1551 1552 1548 1548 1547 1546 1546 1548 1539 1541 1544 1545 1544 1543 1542 1541 1539 1536 1533 1529 1523 1516 1511 1506 1500 1494 1487 1485 1487 1487 1488 1490 1495 1496 1495 1494 1496 1495 1496
1551 1550 1549 1548 1547 1549 1549 1547 1546 1545 1548 1550 1547 1547 1529 1540 1540 1539 1540 1540 1540 1540 1537 1533 1529 1526 1521 1515 1510 1505 1500 1495 1491 1490 1489 1490 1493 1496 1496 1495 1494 1497 1497 1494
1550 1549 1549 1547 1547 1547 1546 1545 1547 1550 1550 1550 1543 1545 1521 1535 1529 1534 1539 1539 1538 1538 1536 1534 1531 1528 1524 1520 1515 1511 1506 1502 1500 1498 1493 1495 1497 1497 1495 1495 1495 1498 1497 1499
1556 1550 1549 1548 1548 1547 1548 1550 1551 1549 1548 1542 1545 1546 1519 1526 1529 1531 1535 1538 1537 1537 1535 1534 1531 1528 1525 1522 1517 1513 1511 1508 1506 1505 1505 1502 1498 1498 1495 1496 1496 1498 1499 1501
1571 1562 1552 1550 1550 1552 1553 1555 1560 1557 1553 1546 1546 1536 1516 1529 1530 1531 1532 1534 1535 1536 1535 1534 1532 1530 1528 1525 1522 1520 1517 1513 1513 1514 1513 1508 1503 1501 1499 1501 1504 1504 1503 1506
1572 1562 1552 1552 1551 1553 1553 1557 1558 1558 1560 1563 1543 1530 1530 1532 1535 1536 1533 1533 1533 1534 1534 1533 1533 1531 1530 1528 1526 1525 1522 1520 1519 1517 1515 1512 1509 1507 1506 1506 1512 1507 1508 1507
1567 1571 1554 1553 1552 1553 1553 1557 1557 1563 1555 1552 1540 1538 1523 1528 1529 1533 1535 1533 1533 1534 1534 1533 1532 1531 1530 1530 1529 1527 1526 1523 1520 1518 1514 1511 1511 1510 1510 1511 1511 1508 1507 1507
1566 1572 1559 1555 1554 1552 1556 1557 1560 1562 1563 1557 1556 1529 1514 1517 1519 1521 1525 1530 1530 1533 1535 1535 1533 1531 1530 1530 1530 1528 1527 1525 1523 1520 1519 1517 1517 1516 1514 1511 1509 1508 1509 1508
1568 1573 1572 1556 1551 1552 1552 1553 1556 1558 1561 1563 1562 1533 1516 1516 1516 1517 1520 1524 1526 1528 1531 1534 1535 1533 1532 1530 1530 1529 1528 1526 1525 1524 1523 1521 1519 1517 1515 1513 1513 1512 1509 1507
1566 1572 1574 1552 1553 1551 1551 1551 1551 1556 1557 1555 1555 1523 1515 1514 1514 1514 1515 1516 1519 1522 1523 1528 1531 1533 1532 1531 1531 1529 1528 1526 1525 1524 1522 1521 1519 1517 1516 1515 1513 1511 1509 1506
1563 1568 1566 1560 1550 1552 1548 1547 1548 1548 1553 1544 1528 1513 1506 1510 1510 1510 1510 1512 1516 1517 1518 1522 1526 1529 1531 1530 1530 1529 1528 1526 1525 1523 1521 1520 1518 1517 1515 1514 1512 1509 1507 1504
1561 1561 1562 1554 1554 1551 1542 1539 1543 1545 1531 1540 1505 1519 1499 1504 1504 1501 1502 1507 1511 1515 1517 1520 1523 1526 1528 1528 1528 1527 1526 1525 1524 1523 1521 1519 1518 1517 1515 1513 1510 1508 1506 1504
1560 1555 1556 1549 1543 1546 1540 1530 1529 1528 1525 1525 1516 1510 1501 1499 1498 1497 1496 1498 1504 1509 1513 1513 1518 1523 1524 1524 1524 1524 1523 1522 1521 1519 1517 1515 1513 1511 1508 1506 1505 1503 1501 1498
1557 1556 1553 1544 1544 1545 1533 1513 1516 1516 1517 1515 1515 1499 1500 1500 1499 1499 1499 1499 1501 1505 1509 1511 1513 1517 1520 1521 1521 1521 1520 1520 1518 1517 1515 1514 1513 1511 1508 1505 1502 1499 1497 1496
1553 1556 1555 1546 1544 1543 1507 1510 1511 1512 1508 1507 1502 1500 1500 1501 1499 1496 1496 1498 1501 1506 1509 1511 1513 1515 1517 1518 1518 1517 1517 1517 1515 1514 1513 1512 1510 1507 1505 1503 1501 1499 1497 1494
1549 1553 1556 1553 1553 1524 1499 1506 1507 1508 1500 1493 1495 1495 1497 1498 1500 1496 1496 1498 1501 1503 1507 1510 1512 1513 1514 1515 1515 1515 1515 1513 1512 1511 1510 1509 1507 1505 1503 1501 1499 1496 1493 1490
1549 1551 1553 1557 1549 1531 1499 1507 1509 1510 1505 1494 1495 1496 1495 1498 1498 1493 1494 1497 1501 1505 1507 1509 1511 1512 1513 1513 1513 1512 1512 1510 1509 1508 1506 1504 1502 1500 1498 1496 1492 1489 1487 1485
1552 1556 1547 1543 1537 1523 1503 1505 1506 1509 1492 1494 1494 1495 1497 1498 1498 1498 1497 1499 1502 1505 1507 1508 1509 1509 1509 1509 1509 1509 1508 1506 1505 1503 1501 1499 1498 1495 1493 1490 1487 1484 1481 1477
1533 1541 1544 1543 1536 1521 1496 1505 1503 1488 1487 1490 1493 1492 1496 1495 1496 1497 1500 1499 1501 1503 1505 1506 1506 1507 1507 1506 1506 1504 1503 1502 1500 1499 1497 1495 1492 1489 1486 1483 1481 1477 1474 1470
1523 1517 1518 1521 1502 1488 1487 1483 1483 1485 1484 1485 1487 1489 1491 1492 1495 1497 1499 1500 1501 1503 1504 1505 1505 1505 1505 1503 1502 1501 1499 1497 1495 1493 1491 1488 1486 1483 1480 1477 1473 1470 1468 1464
1512 1507 1507 1507 1482 1484 1486 1485 1484 1483 1483 1484 1485 1487 1489 1491 1494 1497 1499 1501 1501 1502 1503 1503 1503 1502 1502 1500 1498 1497 1495 1492 1489 1487 1485 1482 1479 1476 1473 1470 1467 1464 1461 1458
1499 1502 1497 1488 1480 1482 1481 1483 1483 1483 1484 1485 1486 1488 1490 1492 1494 1497 1498 1500 1500 1501 1502 1501 1501 1500 1499 1496 1494 1492 1490 1487 1484 1481 1479 1476 1472 1469 1466 1464 1461 1458 1455 1452
1493 1490 1489 1478 1484 1484 1484 1483 1484 1485 1486 1487 1488 1490 1492 1494 1496 1498 1499 1500 1500 1501 1501 1500 1498 1496 1495 1492 1489 1487 1484 1481 1478 1475 1472 1469 1466 1463 1460 1457 1453 1454 1450 1447